GW0743 Weather Reports


Display with metric or nautical units.
time (UTC)temp
F
wind
direction
speed
MPH
gust
MPH
rain 1hr
in
rain 24hr
in
rain mn
in
humidity
%
barometer
mb
20260502195006 60 331 0.0 12.0 0.00 0.00 0.00 33 1016.9
20260502194520 60 246 7.0 12.0 0.00 0.00 0.00 34 1017.1
20260502194005 60 255 6.0 11.0 0.00 0.00 0.00 34 1017.1
20260502193508 60 281 5.0 11.0 0.00 0.00 0.00 38 1017.2
20260502193025 60 241 5.0 9.0 0.00 0.00 0.00 37 1017.2
20260502192508 60 271 2.0 12.0 0.00 0.00 0.00 38 1017.3
20260502192014 60 224 6.0 12.0 0.00 0.00 0.00 35 1017.5
20260502191531 59 20 2.0 12.0 0.00 0.00 0.00 34 1017.5
20260502191007 59 300 6.0 12.0 0.00 0.00 0.00 35 1017.6
20260502190511 59 295 7.0 12.0 0.00 0.00 0.00 32 1017.6
20260502190026 59 246 7.0 12.0 0.00 0.00 0.00 32 1017.8
20260502185512 59 277 4.0 14.0 0.00 0.00 0.00 35 1017.8
20260502185013 59 250 8.0 14.0 0.00 0.00 0.00 40 1018.0
20260502184533 58 260 6.0 15.0 0.00 0.00 0.00 32 1018.0
20260502184006 58 280 9.0 15.0 0.00 0.00 0.00 32 1018.2
20260502183506 58 302 2.0 10.0 0.00 0.00 0.00 37 1018.2
20260502183020 58 265 6.0 10.0 0.00 0.00 0.00 34 1018.3
20260502182509 58 226 5.0 13.0 0.00 0.00 0.00 34 1018.4
20260502182015 57 236 6.0 13.0 0.00 0.00 0.00 37 1018.4
20260502181529 57 263 6.0 10.0 0.00 0.00 0.00 35 1018.5
20260502181007 57 206 4.0 10.0 0.00 0.00 0.00 35 1018.6
20260502180510 57 255 4.0 13.0 0.00 0.00 0.00 34 1018.7
20260502170511 55 262 5.0 10.0 0.00 0.00 0.00 37 1019.5
20260502164010 54 284 6.0 15.0 0.00 0.00 0.00 37 1019.7
20260502163513 55 321 8.0 15.0 0.00 0.00 0.00 37 1019.6
20260502163034 54 264 4.0 9.0 0.00 0.00 0.00 39 1019.7
20260502162510 54 233 3.0 11.0 0.00 0.00 0.00 43 1019.8
20260502162014 54 280 6.0 13.0 0.00 0.00 0.00 40 1019.9
20260502161529 53 285 8.0 13.0 0.00 0.00 0.00 40 1020.0
20260502161010 53 296 3.0 11.0 0.00 0.00 0.00 38 1020.0
20260502160513 53 303 4.0 11.0 0.00 0.00 0.00 40 1020.1
20260502152014 52 297 5.0 12.0 0.00 0.00 0.00 45 1020.3
20260502151529 52 302 5.0 12.0 0.00 0.00 0.00 45 1020.3
20260502151015 52 285 3.0 11.0 0.00 0.00 0.00 45 1020.4
20260502150511 52 283 7.0 11.0 0.00 0.00 0.00 45 1020.4
20260502130505 42 279 2.0 4.0 0.00 0.00 0.00 69 1020.8
20260502123507 37 263 0.0 1.0 0.00 0.00 0.00 77 1020.7
20260502123023 36 283 0.0 1.0 0.00 0.00 0.00 78 1020.7
20260502122508 35 283 0.0 1.0 0.00 0.00 0.00 81 1020.6
20260502122009 35 282 0.0 1.0 0.00 0.00 0.00 82 1020.7
20260502121538 34 282 1.0 1.0 0.00 0.00 0.00 83 1020.6
20260502121009 33 282 0.0 1.0 0.00 0.00 0.00 86 1020.6
20260502120508 32 206 0.0 0.0 0.00 0.00 0.00 89 1020.6
20260502115504 31 206 0.0 0.0 0.00 0.00 0.00 90 1020.5
20260502115006 30 206 0.0 0.0 0.00 0.00 0.00 90 1020.5
20260502114516 30 206 0.0 0.0 0.00 0.00 0.00 90 1020.4
20260502114008 30 206 0.0 0.0 0.00 0.00 0.00 91 1020.3
20260502113509 29 206 0.0 0.0 0.00 0.00 0.00 91 1020.3
20260502113022 29 206 0.0 0.0 0.00 0.00 0.00 91 1020.3
20260502112507 29 206 0.0 0.0 0.00 0.00 0.00 91 1020.3
20260502112007 28 206 0.0 0.0 0.00 0.00 0.00 91 1020.4
20260502111504 28 206 0.0 0.0 0.00 0.00 0.00 92 1020.3
20260502111003 28 206 0.0 0.0 0.00 0.00 0.00 91 1020.2
20260502110502 28 206 0.0 0.0 0.00 0.00 0.00 92 1020.2
20260502110010 29 206 0.0 0.0 0.00 0.00 0.00 92 1020.1
20260502105503 29 206 0.0 0.0 0.00 0.00 0.00 92 1020.2
20260502105003 29 206 0.0 0.0 0.00 0.00 0.00 93 1020.3
20260502104534 29 206 0.0 0.0 0.00 0.00 0.00 92 1020.3
20260502104003 29 206 0.0 0.0 0.00 0.00 0.00 92 1020.2
20260502103506 28 206 0.0 0.0 0.00 0.00 0.00 92 1020.1
20260502103023 28 206 0.0 0.0 0.00 0.00 0.00 92 1020.2
20260502102506 29 206 0.0 0.0 0.00 0.00 0.00 92 1020.2
20260502102010 29 206 0.0 0.0 0.00 0.00 0.00 92 1020.3
20260502101520 29 206 0.0 0.0 0.00 0.00 0.00 92 1020.4
20260502101006 29 206 0.0 0.0 0.00 0.00 0.00 92 1020.3
20260502100510 28 206 0.0 0.0 0.00 0.00 0.00 91 1020.2
20260502091521 29 205 0.0 0.0 0.00 0.00 0.00 91 1020.2
20260502091009 29 205 0.0 0.0 0.00 0.00 0.00 90 1020.2
20260502090506 29 205 0.0 0.0 0.00 0.00 0.00 89 1020.1
20260502071522 32 281 0.0 1.0 0.00 0.00 0.00 84 1020.3
20260502071004 33 281 0.0 1.0 0.00 0.00 0.00 84 1020.4
20260502070505 32 281 0.0 1.0 0.00 0.00 0.00 85 1020.4
20260502070016 32 281 0.0 1.0 0.00 0.00 0.00 83 1020.3
20260502065506 32 281 0.0 0.0 0.00 0.00 0.00 81 1020.3
20260502065009 32 281 0.0 0.0 0.00 0.00 0.00 81 1020.3
20260502064521 33 281 0.0 0.0 0.00 0.00 0.00 80 1020.4
20260502064008 33 281 0.0 0.0 0.00 0.00 0.00 79 1020.5
20260502063506 33 281 0.0 0.0 0.00 0.00 0.00 79 1020.5
20260502063024 34 281 0.0 0.0 0.00 0.01 0.00 78 1020.5
20260502062509 34 281 0.0 0.0 0.00 0.01 0.00 78 1020.5
20260502062010 35 281 0.0 0.0 0.00 0.01 0.00 77 1020.5
20260502061528 35 281 0.0 1.0 0.00 0.01 0.00 76 1020.5
20260502061009 35 281 0.0 1.0 0.00 0.01 0.00 75 1020.5
20260502060511 35 281 0.0 1.0 0.00 0.01 0.00 76 1020.5
20260502060030 35 281 0.0 1.0 0.00 0.01 0.00 78 1020.5
20260502055503 35 281 0.0 1.0 0.00 0.01 0.00 79 1020.4
20260502055010 35 281 0.0 1.0 0.00 0.01 0.00 76 1020.4
20260502054519 36 281 0.0 0.0 0.00 0.01 0.00 75 1020.3
20260502054004 36 281 0.0 0.0 0.00 0.01 0.00 73 1020.2
20260502053508 37 281 0.0 3.0 0.00 0.01 0.00 73 1020.3
20260502053022 37 281 0.0 3.0 0.00 0.01 0.00 74 1020.3
20260502052510 37 281 0.0 1.0 0.00 0.01 0.00 71 1020.3
20260502052009 38 281 0.0 2.0 0.00 0.01 0.00 70 1020.3
20260502051546 38 281 0.0 2.0 0.00 0.01 0.00 68 1020.2
20260502051014 39 307 1.0 2.0 0.00 0.01 0.00 62 1020.2
20260502050509 40 307 0.0 1.0 0.00 0.01 0.00 62 1020.3
20260502050027 40 307 0.0 1.0 0.00 0.01 0.00 61 1020.2
20260502045507 41 307 0.0 1.0 0.00 0.01 0.01 58 1020.2
20260502045011 41 307 0.0 3.0 0.00 0.01 0.01 57 1020.1
20260502044529 41 307 1.0 3.0 0.00 0.01 0.01 57 1020.1
20260502044013 41 309 1.0 4.0 0.00 0.01 0.01 57 1020.0
20260502043507 41 309 2.0 4.0 0.00 0.01 0.01 57 1020.1
20260502043020 41 299 3.0 4.0 0.00 0.01 0.01 58 1020.0
20260502042508 41 290 1.0 2.0 0.00 0.01 0.01 61 1020.0
20260502042010 40 281 0.0 1.0 0.00 0.01 0.01 61 1020.0
20260502041522 41 281 0.0 2.0 0.00 0.01 0.01 62 1020.0
20260502041008 41 277 1.0 3.0 0.00 0.01 0.01 62 1020.0
20260502040509 41 302 1.0 3.0 0.00 0.01 0.01 60 1019.9
20260502040026 41 302 2.0 3.0 0.00 0.01 0.01 62 1019.9
20260502035509 41 12 2.0 2.0 0.00 0.01 0.01 63 1019.8
20260502035010 41 359 2.0 2.0 0.00 0.01 0.01 63 1019.9
20260502034539 41 324 1.0 2.0 0.00 0.01 0.01 64 1019.9
20260502034010 42 321 1.0 2.0 0.00 0.01 0.01 63 1019.9
20260502033514 42 322 2.0 2.0 0.00 0.01 0.01 62 1019.9
20260502033042 43 336 1.0 2.0 0.00 0.01 0.01 62 1019.9
20260502032510 43 336 1.0 2.0 0.00 0.01 0.01 61 1019.9
20260502032008 43 324 1.0 4.0 0.00 0.01 0.01 59 1019.9
20260502031521 44 329 2.0 4.0 0.00 0.01 0.01 57 1019.9
20260502031009 43 315 2.0 3.0 0.00 0.01 0.01 61 1019.9
20260502030510 43 322 2.0 2.0 0.00 0.01 0.01 60 1019.8
20260502030023 43 321 1.0 2.0 0.00 0.01 0.01 59 1019.8
20260502025509 43 317 1.0 2.0 0.00 0.01 0.01 58 1019.8
20260502025010 44 317 2.0 2.0 0.00 0.01 0.01 59 1019.8
20260502024530 44 317 1.0 2.0 0.00 0.01 0.01 58 1019.6
20260502024010 44 317 1.0 2.0 0.00 0.01 0.01 58 1019.7
20260502023512 44 317 1.0 3.0 0.00 0.01 0.01 56 1019.6
20260502023030 44 312 2.0 3.0 0.00 0.01 0.01 56 1019.5
20260502022504 44 311 2.0 3.0 0.00 0.01 0.01 55 1019.5
20260502022007 44 313 2.0 3.0 0.00 0.01 0.01 55 1019.5
20260502021518 44 313 2.0 3.0 0.00 0.01 0.01 55 1019.4
20260502021006 45 313 2.0 3.0 0.00 0.01 0.01 54 1019.3
20260502020507 45 308 2.0 3.0 0.00 0.01 0.01 53 1019.3
20260502020023 45 311 2.0 3.0 0.00 0.01 0.01 52 1019.2
20260502015509 44 316 2.0 3.0 0.00 0.01 0.01 51 1019.2
20260502015012 44 318 2.0 3.0 0.00 0.01 0.01 53 1019.1
20260502014507 44 316 2.0 3.0 0.00 0.01 0.01 54 1019.0
20260502014002 45 328 2.0 3.0 0.00 0.01 0.01 52 1018.9
20260502013502 45 333 2.0 3.0 0.00 0.01 0.01 51 1018.9
20260502013008 45 345 2.0 5.0 0.00 0.01 0.01 50 1018.9
20260502012502 46 354 2.0 6.0 0.00 0.01 0.01 49 1018.8
20260502012009 46 359 4.0 6.0 0.00 0.01 0.01 47 1018.8
20260502011518 47 351 3.0 4.0 0.00 0.01 0.01 48 1018.8
20260502011006 47 2 3.0 6.0 0.00 0.01 0.01 47 1018.7
20260502010506 48 340 3.0 6.0 0.00 0.01 0.01 45 1018.7
20260502010021 48 352 3.0 6.0 0.00 0.01 0.01 46 1018.6
20260502005508 48 2 4.0 9.0 0.00 0.01 0.01 45 1018.6
20260502005007 49 360 5.0 10.0 0.00 0.01 0.01 44 1018.5
20260502004522 49 345 7.0 11.0 0.00 0.01 0.01 41 1018.5
20260502004011 49 326 8.0 11.0 0.00 0.01 0.01 40 1018.3
20260502003511 50 335 7.0 11.0 0.00 0.01 0.01 40 1018.4
20260502003012 50 349 9.0 13.0 0.00 0.01 0.01 39 1018.3
20260502002502 50 345 9.0 13.0 0.00 0.01 0.01 39 1018.3
20260502002008 50 8 9.0 13.0 0.00 0.01 0.01 40 1018.3
20260502001512 50 13 8.0 11.0 0.00 0.01 0.01 40 1018.3
20260502001006 50 354 7.0 11.0 0.00 0.01 0.01 38 1018.2
20260502000505 50 3 8.0 11.0 0.00 0.01 0.01 39 1018.2
20260502000015 50 316 7.0 11.0 0.00 0.01 0.01 38 1018.2
20260501235507 50 328 6.0 10.0 0.00 0.01 0.01 38 1018.2
20260501235007 51 323 7.0 12.0 0.00 0.01 0.01 37 1018.2
20260501234524 51 336 8.0 12.0 0.00 0.01 0.01 36 1018.2
20260501234007 51 314 9.0 12.0 0.00 0.01 0.01 37 1018.2
20260501233511 51 322 7.0 10.0 0.00 0.01 0.01 38 1018.2
20260501233028 51 350 6.0 13.0 0.00 0.01 0.01 38 1018.2
20260501232509 51 349 8.0 13.0 0.00 0.01 0.01 38 1018.2
20260501232011 52 342 11.0 15.0 0.00 0.01 0.01 36 1018.1
20260501231538 52 323 10.0 15.0 0.00 0.01 0.01 37 1018.1
20260501231003 52 328 9.0 14.0 0.00 0.01 0.01 37 1018.1
20260501230503 52 330 8.0 14.0 0.00 0.01 0.01 36 1018.1
20260501230012 52 338 7.0 16.0 0.00 0.01 0.01 36 1018.1
20260501225506 53 2 11.0 16.0 0.00 0.01 0.01 35 1018.1
20260501225005 53 306 10.0 15.0 0.00 0.01 0.01 36 1018.0
20260501224520 52 346 9.0 14.0 0.00 0.01 0.01 38 1018.0
20260501224005 51 10 8.0 14.0 0.00 0.01 0.01 40 1018.0
20260501223510 52 35 8.0 14.0 0.00 0.01 0.01 38 1018.0
20260501223021 51 18 8.0 13.0 0.00 0.01 0.01 39 1018.1
20260501222509 51 345 7.0 16.0 0.00 0.01 0.01 38 1018.1
20260501222011 52 4 8.0 16.0 0.00 0.01 0.01 39 1018.1
20260501221525 52 13 9.0 13.0 0.00 0.01 0.01 39 1018.0
20260501221013 52 324 5.0 14.0 0.00 0.01 0.01 37 1018.0
20260501220510 52 341 12.0 16.0 0.00 0.01 0.01 36 1017.9
20260501220027 52 337 10.0 16.0 0.00 0.01 0.01 38 1017.9
20260501215503 52 342 9.0 14.0 0.00 0.01 0.01 36 1017.9
20260501215003 52 328 7.0 14.0 0.00 0.01 0.01 36 1017.9
20260501214523 52 354 7.0 15.0 0.00 0.01 0.01 34 1018.0
20260501214006 52 325 6.0 15.0 0.00 0.01 0.01 37 1017.9
20260501213505 53 348 11.0 17.0 0.00 0.01 0.01 39 1017.9
20260501213019 53 13 13.0 17.0 0.00 0.01 0.01 36 1017.9
20260501212505 52 30 10.0 15.0 0.00 0.01 0.01 38 1017.9
20260501212006 52 333 6.0 13.0 0.00 0.01 0.01 36 1017.8
20260501211526 52 20 7.0 11.0 0.00 0.01 0.01 38 1017.9
20260501211006 51 13 6.0 11.0 0.00 0.01 0.01 39 1017.9
20260501210512 51 307 4.0 14.0 0.00 0.01 0.01 38 1017.9
20260501210025 51 360 7.0 14.0 0.00 0.01 0.01 39 1018.0
20260501205510 51 1 10.0 14.0 0.00 0.01 0.01 39 1017.9
20260501205009 51 19 8.0 16.0 0.00 0.01 0.01 39 1018.0
20260501204528 51 13 9.0 18.0 0.00 0.01 0.01 40 1018.1
20260501204005 51 16 14.0 18.0 0.00 0.01 0.01 38 1018.1
20260501203505 52 16 14.0 18.0 0.00 0.01 0.01 38 1018.0
20260501203018 53 357 9.0 15.0 0.00 0.01 0.01 40 1018.0
20260501202504 52 11 9.0 15.0 0.00 0.01 0.01 37 1018.1
20260501202003 52 336 9.0 15.0 0.00 0.01 0.01 37 1018.1
20260501201503 52 333 11.0 15.0 0.00 0.01 0.01 36 1018.1
20260501201002 52 41 5.0 15.0 0.00 0.01 0.01 38 1018.2
20260501200502 52 347 9.0 15.0 0.00 0.01 0.01 39 1018.1
20260501200009 52 355 12.0 15.0 0.00 0.01 0.01 37 1018.1
20260501195504 52 323 6.0 11.0 0.00 0.01 0.01 38 1018.1